Satellite-Ground Cal/Val Site Overpasses Predictions

Prediction of Satellite NPP Overpassing Cal/Val Site: Antarctic Dome C

Ground Cal/Val Site Location: Latitude: -75.10, Longitude: 123.35; Satellite-Ground Site NADIR distance within 100 km.

Table of predicted overpasses for the next 14.0 days since TLE Epoch: 4/6/2017
Interval Starting Time Ending Time Minimum Distance Time Minimum Distance (km)
1 04/08/2017 15:00:54 04/08/2017 15:01:18 04/08/2017 15:01:06 56.96
2 04/09/2017 14:42:05 04/09/2017 14:42:30 04/09/2017 14:42:17 52.05
3 04/10/2017 07:43:45 04/10/2017 07:44:06 04/10/2017 07:43:55 69.55
4 04/11/2017 07:24:53 04/11/2017 07:25:20 04/11/2017 07:25:07 38.45
5 04/13/2017 15:07:20 04/13/2017 15:07:29 04/13/2017 15:07:25 94.87
6 04/14/2017 14:48:20 04/14/2017 14:48:49 04/14/2017 14:48:34 16.48
7 04/16/2017 07:31:11 04/16/2017 07:31:40 04/16/2017 07:31:25 2.51
8 04/19/2017 14:54:38 04/19/2017 14:55:07 04/19/2017 14:54:53 20.39


NCC Satellite Cal/Val Overpasses Prediction Service
